NETSAT-2

Last updated on Thu Nov 21 2024 00:03:40 GMT+0000 (Coordinated Universal Time)

1 46507U 20068X 24325.33760282 .00017012 00000+0 76200-3 0 9993 2 46507 97.8237 287.0629 0005410 185.4364 174.6813 15.21317838227803
UTC large
Height (km)
Speed (km/s)
/
Latitude / Longitude
Inclination (degrees)
Orbital Period (minutes)
Azimuth
Elevation
Range (km)
Doppler Factor

Next 0 passes for location: London (51.5072 / 0.1276)

Sorry there are no passes over London.